Voltar ao catálogo

STARLINK-33589

AtivoComunicaçõesVLEO
NORAD 62759·PAYLOAD·🇺🇸 United States

Lançado Jan 21, 2025 de Vandenberg Space Force Base

Loading…

Próximas Passagens (próximas 24 horas)

TLE

AtualizadoSource: CelesTrak SupGP

Época: Sep 14, 2026, 20:55 UTC

1 62759C 25015B   26257.87201389 -.00031075  00000+0 -99890-3 0  2574
2 62759  53.1574 162.5319 0001320  92.8641 232.9596 15.31730161    14

Acompanhe STARLINK-33589 em tempo real com AllMySat

Download on the App Store